Preview of NWS' New Version of Forecast
This preview is not operational and should not be used for support decisions.

Regional Weather Roundup (RWR)

Issued by National Weather Service (NWS)

                            
000
ASUS44 KMEG 212300
RWRTN 
TENNESSEE HOURLY STATE WEATHER ROUNDUP
NATIONAL WEATHER SERVICE MEMPHIS TN
600 PM CDT SUN JUL 21 2019

TNZ002-004-019-021-049-052-054-088>092-220000-
WEST TENNESSEE
  
CITY           SKY/WX    TMP DP  RH WIND       PRES   REMARKS
MEMPHIS INTL   PTSUNNY   85  76  74 S8        29.94S HX  94           
NWS MEMPHIS      N/A     84 N/A N/A MISG        N/A                   
JACKSON        FAIR      87  78  74 S5        29.94F HX 100           
DYERSBURG      FAIR      87  77  72 S7        29.94R HX  99           
$$

TNZ008-025-027-028-033-062-065-066-220000-
NORTH MIDDLE TENNESSEE
  
CITY           SKY/WX    TMP DP  RH WIND       PRES   REMARKS
NASHVILLE      PTSUNNY   88  73  61 SW6       29.96S HX  95           
CLARKSVILLE    FAIR      87  76  69 S10       29.92F HX  97           
SMYRNA         FAIR      87  76  69 SW6       29.96F HX  97           
CROSSVILLE     FAIR      77  70  79 CALM      30.04F                  
$$

TNZ061-075-076-078-094-096-097-220000-
SOUTH MIDDLE TENNESSEE
  
CITY           SKY/WX    TMP DP  RH WIND       PRES   REMARKS
FAYETTEVILLE   SUNNY     84  77  79 VRB5      29.99S HX  94           
$$

TNZ017-018-042-046-047-220000-
NORTHEAST TENNESSEE
  
CITY           SKY/WX    TMP DP  RH WIND       PRES   REMARKS
TRI CITIES     FAIR      87  69  54 SW9       30.00F HX  91           
$$

TNZ012-013-036-069-073-074-220000-
CENTRAL EAST TENNESSEE
  
CITY           SKY/WX    TMP DP  RH WIND       PRES   REMARKS
KNOXVILLE      FAIR      87  69  54 SW10      29.96F HX  91           
OAK RIDGE      FAIR      85  71  63 W6        29.99F HX  90           
$$

TNZ083-085-099-220000-
SOUTHEAST TENNESSEE
  
CITY           SKY/WX    TMP DP  RH WIND       PRES   REMARKS
CHATTANOOGA    PTSUNNY   89  71  55 SW9       29.98S HX  95           
$$

SKY/WX REPORTED AS FAIR MEANS FEW OR NO CLOUDS BELOW
12 THOUSAND FEET.